Location: Caltech
(34.1382°N, 118.1253°W)
Time: 08:19:47
(UTC-08:00)

OPAL - Visible Passes

Search period start: 24 February 2018 00:00
Search period end: 06 March 2018 00:00
Orbit: 744 x 795 km, 100.2° (Epoch: 24 February)

Date Brightness Start Highest point End Pass type
(mag) Time Alt. Az. Time Alt. Az. Time Alt. Az.
24 Feb 9.7 20:08:25 15° N 20:08:25 15° N 20:09:16 10° N visible
25 Feb 9.6 19:32:19 12° NNE 19:32:19 12° NNE 19:32:56 10° NNE visible
26 Feb 9.9 20:36:32 15° NNW 20:36:32 15° NNW 20:37:19 10° NNW visible
27 Feb 9.6 20:00:27 16° N 20:00:27 16° N 20:01:32 10° N visible
28 Feb 9.6 19:24:22 12° NNE 19:24:22 12° NNE 19:24:56 10° NNE visible
28 Feb 10.3 21:04:38 12° NNW 21:04:38 12° NNW 21:05:03 10° NNW visible
01 Mar 9.7 20:28:33 17° N 20:28:33 17° N 20:29:43 10° N visible
02 Mar 9.5 19:52:29 16° NNE 19:52:29 16° NNE 19:53:45 10° N visible
03 Mar 9.7 19:16:23 11° NE 19:16:23 11° NE 19:16:45 10° NNE visible
03 Mar 10.0 20:56:40 15° NNW 20:56:40 15° NNW 20:57:34 10° NNW visible
04 Mar 9.5 20:20:36 19° N 20:20:36 19° N 20:22:04 10° N visible
05 Mar 9.4 19:44:31 16° NNE 19:44:31 16° NNE 19:45:54 10° NNE visible
05 Mar 10.4 21:24:48 11° NW 21:24:48 11° NW 21:25:04 10° NW visible
